Retour au catalogue

DELTA 1 DEB

ActifPO
NORAD 21289·DEBRIS·🇺🇸 United States

Lancé Jun 12, 1975 depuis Vandenberg Space Force Base

Loading…

Prochains Passages (prochaines 24 heures)

TLE

FraisSource: Space-Track

Époque: Sep 14, 2026, 10:18 UTC

1 21289U 75052AA  26257.42971762  .00000486  00000-0  15119-2 0  9998
2 21289  99.9014 235.6376 0245686 167.6044 347.2258 13.00077561676142

Suivez DELTA 1 DEB en temps réel avec AllMySat

Download on the App Store